星链-5077 (STARLINK-5077 )

导读 | 星芒AI

STARLINK-5077 是 SpaceX Starlink 卫星互联网项目中的第 5077 颗卫星,属于低轨通信卫星群,旨在为全球用户提供高速互联网服务。该卫星于近期发射,运行在约 550 公里的轨道高度,采用先进推进系统和激光通信技术,以提升网络性能和稳定性。作为 Starlink 计划的一部分,它有助于扩大覆盖范围,减少延迟,并增强偏远地区的网络连接能力。

基本信息
目录编号:
55391
目录名称:
STARLINK-5077
国际标识:
2023-014A
轨道中心:
EARTH
卫星名称:
星链-5077
卫星全名:
星链-5077 (STARLINK-5077 )
卫星状态:
已陨落 最后检测时间 2025-05-02
发射日期:
2023-01-31 UTC
国别 :
美国 (US)
星等 :
--
轨道信息
数据来源 国际轨道数据
星历时间: 2025-05-02T07:25:24+0800
轨道信息已过期186天
半长轴: 6520.632km
偏心率: 0.0011871
轨道倾角: 69.987°
近地点辐角 227.759°
升交点赤经 107.970°
平近点角 160.428°
近地点: 134.756km
远地点: 150.238km
周期: 87.336分钟
每日圈数: 16.48801
详细信息
固有亮度:
5
最大亮度:
2.5
卫星平台:
Starlink v1.5
覆盖范围:
全球
运营商:
太空探索技术公司
运营商所在国:
美国
制造商(研发单位):
太空探索技术公司
制造商所在国:
美国
使用方式:
暂无
卫星简介
星链(Starlink)计划是由太空探索技术公司(SpaceX)提出的一个巨型低轨卫星互联网星座项目,计划在2019年至2024年间在太空搭建由约1.2万颗卫星组成的“星链”网络,其中1584颗将部署在地球上空550千米处的近地轨道,并从2020年开始工作。该卫星仍在工作。